Skip Page Navigation
NASA JPL Caltech
NASA Logo - Jet Propulsion Laboratory + View the NASA Portal
+ Near-Earth Object (NEO) Program
Search JPL
JPL Home Earth Solar System Stars & Galaxies Technology
JPL Solar System Dynamics
BODIES ORBITS EPHEMERIDES TOOLS PHYSICAL DATA DISCOVERY FAQ SITE MAP
JPL Small-Body Database Browser
Search: [ help ]  
30884 (1992 SL23)
Classification: Main-belt Asteroid          SPK-ID: 2030884
Ephemeris | Orbit Diagram | Orbital Elements | Physical Parameters | Discovery Circumstances | Close-Approach Data ]

[ show orbit diagram ]
Orbital Elements at Epoch 2457000.5 (2014-Dec-09.0) TDB
Reference: JPL 10 (heliocentric ecliptic J2000)
 Element Value Uncertainty (1-sigma)   Units 
e .1473383344587327 9.2896e-08  
a 2.613217593643098 2.6694e-08 AU
q 2.228190465817466 2.5324e-07 AU
i 13.97445297023156 1.1549e-05 deg
node 31.22339257655321 2.736e-05 deg
peri 34.38809999664306 4.6714e-05 deg
M 58.96096496531289 3.6108e-05 deg
tp 2456747.789161405516
(2014-Mar-31.28916141)
0.00015356 JED
period 1542.985294550996
4.22
2.3642e-05
6.473e-08
d
yr
n .2333139539769619 3.5749e-09 deg/d
Q 2.998244721468729 3.0627e-08 AU
  Orbit Determination Parameters
   # obs. used (total)      592  
   data-arc span      14261 days (39.04 yr)  
   first obs. used      1975-10-10  
   last obs. used      2014-10-26  
   planetary ephem.      DE431  
   SB-pert. ephem.      SB431-BIG16  
   condition code      0  
   fit RMS      .55414  
   data source      ORB  
   producer      Otto Matic  
   solution date      2014-Nov-10 13:57:52  

Additional Information
 Earth MOID = 1.25276 AU 
 T_jup = 3.352 
[ show covariance matrix ]

Ephemeris | Orbit Diagram | Orbital Elements | Physical Parameters | Discovery Circumstances | Close-Approach Data ]

Physical Parameter Table
Parameter Symbol Value Units Sigma Reference Notes
absolute magnitude H 13.8 mag n/a MPO266108  

30884 (1992 SL23)          Discovered 1992-Sep-30 by Holt, H. E. at Palomar (675)
Reference: 20011130/Numbers.arcLast Updated: 2004-04-19

[ show close-approach data ]
Alternate Designations
 1992 SL23 = 1975 TT6 = 1992 US9 = 1992 XS = 1999 LS16 
Ephemeris | Orbit Diagram | Orbital Elements | Physical Parameters | Discovery Circumstances | Close-Approach Data ]
ABOUT SSD CREDITS/AWARDS PRIVACY/COPYRIGHT GLOSSARY LINKS
FirstGov 2014-Dec-20 00:53 UT
(server date/time)  
NASA Home Page
Site Manager:   Donald K. Yeomans
Webmaster  Alan B. Chamberlin